Powrót do katalogu

FREGAT R/B

LostHEO
NORAD 68572·ROCKET BODY·🇷🇺 Russia

Wystrzelony Jan 3, 2026 z Plesetsk Cosmodrome

Loading…

Następne Przeloty (najbliższe 24 godziny)

TLE

NieaktualneSource: Space-Track

Epoka: Apr 3, 2026, 07:42 UTC

1 68572U 26071B   26093.32132148 -.00001541  00000-0  35052-3 0  9998
2 68572  63.0589 237.9448 7313820 284.9724  10.3188  2.01041412    15

Śledź FREGAT R/B w czasie rzeczywistym z AllMySat

Download on the App Store